Wooster, OH

11:54 PM EDT on April 25, 2018 (GMT -0400)
Wayne County

Weather History for KBJJ - February, 2014

Change the Weather History Date:

Sunday, February 16, 2014

  Actual Average Record
Temperature  
Mean Temperature 12 °F -  
Max Temperature 24 °F 35 °F 59 °F (2006)
Min Temperature 0 °F 21 °F -11 °F (2015)
Degree Days  
Heating Degree Days 53    
Moisture  
Dew Point 12 °F    
Average Humidity 83    
Maximum Humidity 100    
Minimum Humidity 74    
Precipitation  
Precipitation 0.01 in - - ()
Sea Level Pressure  
Sea Level Pressure 30.09 in    
Wind  
Wind Speed 6 mph (WNW)    
Max Wind Speed 16 mph    
Max Gust Speed -    
Visibility 3 miles    
Events Fog , Snow    
Averages and records for this station are not official NWS values.
T = Trace of Precipitation, MM = Missing Value Source: NWS Daily Summary

Daily Weather History Graph

Daily Weather History Graph

Search for Another Location

Airport or City:

Astronomy

Feb. 16, 2014 Rise Set
Actual Time 7:20 AM EST 6:03 PM EST
Civil Twilight 6:52 AM EST 6:31 PM EST
Nautical Twilight 6:20 AM EST 7:03 PM EST
Astronomical Twilight 5:48 AM EST 7:35 PM EST
Moon 8:00 PM EST (2/16) 7:48 AM EST (2/16)
Length of Visible Light 11h 39m
Length of Day
10h 43m
Full, 97% of the Moon is Illuminated
Feb 16
Full
Feb 22
Last Quarter
Mar 1
New
Mar 8
First Quarter
Mar 16
Full

Hourly Weather History & Observations

Time (EST) Temp. Windchill Dew Point Humidity Pressure Visibility Wind Dir Wind Speed Gust Speed Precip Events Conditions
12:56 AM 1.9 °F - -2.0 °F 83% 30.10 in 6.0 mi Calm Calm - N/A   Clear
1:56 AM 1.9 °F - -2.9 °F 80% 30.09 in 7.0 mi Calm Calm - N/A   Clear
2:56 AM -0.0 °F -9.9 °F -4.0 °F 83% 30.08 in 6.0 mi South 4.6 mph - N/A   Clear
3:56 AM 3.9 °F - 1.0 °F 88% 30.05 in 6.0 mi Calm Calm - N/A   Mostly Cloudy
4:56 AM 6.1 °F - 3.0 °F 87% 30.06 in 5.0 mi Calm Calm - N/A   Overcast
5:56 AM 8.1 °F -0.5 °F 3.9 °F 83% 30.04 in 5.0 mi SSE 4.6 mph - N/A   Overcast
6:56 AM 15.1 °F 5.2 °F 10.0 °F 80% 30.01 in 7.0 mi SSW 6.9 mph - N/A   Overcast
7:08 AM 14.0 °F 2.9 °F 10.0 °F 84% 29.94 in 7.0 mi South 8.1 mph - N/A   Overcast
7:44 AM 15.1 °F 7.7 °F 10.9 °F 84% 29.93 in 5.0 mi SSE 4.6 mph - N/A   Overcast
7:56 AM 15.1 °F - 12.0 °F 88% 30.00 in 5.0 mi Calm Calm - N/A   Overcast
8:48 AM 17.1 °F 11.7 °F 12.9 °F 84% 29.95 in 1.8 mi SSW 3.5 mph - 0.00 in Snow Light Snow
8:56 AM 16.0 °F 7.4 °F 12.0 °F 84% 30.02 in 1.2 mi SSW 5.8 mph - 0.00 in Snow Light Snow
9:03 AM 16.0 °F 8.8 °F 12.0 °F 84% 29.95 in 1.0 mi SW 4.6 mph - 0.00 in Snow Light Snow
9:13 AM 16.0 °F 6.3 °F 12.9 °F 88% 29.96 in 0.8 mi SSW 6.9 mph - 0.00 in Snow Light Snow
9:56 AM 17.1 °F 10.0 °F 14.0 °F 88% 30.04 in 0.8 mi SSW 4.6 mph - 0.00 in Snow Light Snow
10:07 AM 17.1 °F 8.7 °F 14.0 °F 88% 29.96 in 0.5 mi SW 5.8 mph - 0.00 in Fog , Snow Snow
10:15 AM 17.1 °F 6.6 °F 14.0 °F 88% 29.97 in 0.8 mi SW 8.1 mph - 0.00 in Snow Light Snow
10:31 AM 18.0 °F 8.7 °F 14.0 °F 84% 29.97 in 1.0 mi SSW 6.9 mph - 0.00 in Snow Light Snow
10:39 AM 18.0 °F 8.7 °F 14.0 °F 84% 29.97 in 1.2 mi SW 6.9 mph - 0.00 in Snow Light Snow
10:56 AM 19.0 °F 11.1 °F 15.1 °F 85% 30.04 in 1.2 mi SSW 5.8 mph - 0.00 in Snow Light Snow
11:48 AM 21.0 °F 13.4 °F 16.0 °F 81% 29.97 in 2.0 mi West 5.8 mph - 0.00 in Snow Light Snow
11:56 AM 21.0 °F 10.6 °F 17.1 °F 85% 30.04 in 2.0 mi West 9.2 mph - 0.00 in Snow Light Snow
12:11 PM 21.0 °F 11.4 °F 17.1 °F 85% 29.97 in 3.0 mi West 8.1 mph - 0.00 in Snow Light Snow
12:31 PM 21.9 °F 14.5 °F 18.0 °F 85% 29.96 in 4.0 mi WNW 5.8 mph - 0.00 in Snow Light Snow
12:56 PM 23.0 °F 13.9 °F 17.1 °F 78% 30.03 in 3.0 mi WNW 8.1 mph - 0.01 in Snow Light Snow
1:08 PM 23.0 °F 13.9 °F 18.0 °F 81% 29.97 in 2.5 mi NW 8.1 mph - 0.00 in Snow Light Snow
1:24 PM 23.0 °F 12.4 °F 18.0 °F 81% 29.97 in 1.0 mi NW 10.4 mph - 0.00 in Snow Light Snow
1:31 PM 23.0 °F 11.7 °F 18.0 °F 81% 29.97 in 1.0 mi NNW 11.5 mph - 0.00 in Snow Light Snow
1:42 PM 24.1 °F 13.1 °F 18.0 °F 77% 29.97 in 1.5 mi NW 11.5 mph - 0.00 in Snow Light Snow
1:56 PM 23.0 °F 12.4 °F 18.0 °F 81% 30.04 in 2.0 mi NW 10.4 mph - 0.00 in Snow Light Snow
2:17 PM 23.0 °F 12.4 °F 17.1 °F 78% 29.99 in 4.0 mi WNW 10.4 mph - 0.00 in Snow Light Snow
2:51 PM 23.0 °F 11.7 °F 17.6 °F 80% 30.00 in 1.8 mi NW 11.5 mph - 0.00 in Snow Light Snow
2:56 PM 23.0 °F 10.6 °F 17.1 °F 78% 30.07 in 1.0 mi WNW 13.8 mph - 0.00 in Snow Light Snow
3:10 PM 24.1 °F 13.7 °F 18.0 °F 77% 30.00 in 1.5 mi NW 10.4 mph - 0.00 in Snow Light Snow
3:32 PM 23.0 °F 11.7 °F 17.1 °F 78% 30.02 in 2.0 mi NNW 11.5 mph - 0.00 in Snow Light Snow
3:56 PM 21.9 °F 10.4 °F 17.1 °F 82% 30.11 in 1.8 mi NW 11.5 mph - 0.00 in Snow Light Snow
4:11 PM 21.9 °F 9.2 °F 16.0 °F 78% 30.06 in 2.0 mi NW 13.8 mph - 0.00 in Snow Light Snow
4:37 PM 21.9 °F 11.0 °F 16.0 °F 78% 30.08 in 2.5 mi NNW 10.4 mph - 0.00 in Snow Light Snow
4:56 PM 21.9 °F 11.0 °F 16.0 °F 78% 30.16 in 2.5 mi NW 10.4 mph - 0.00 in Snow Light Snow
5:12 PM 21.0 °F 9.3 °F 15.1 °F 78% 30.10 in 1.5 mi NNW 11.5 mph - 0.00 in Snow Light Snow
5:19 PM 21.0 °F 7.1 °F 15.1 °F 78% 30.11 in 1.5 mi NNW 16.1 mph - 0.00 in Snow Light Snow
5:23 PM 21.0 °F 8.6 °F 15.1 °F 78% 30.11 in 1.0 mi NNW 12.7 mph - 0.00 in Snow Light Snow
5:40 PM 19.9 °F 6.7 °F 15.1 °F 81% 30.13 in 1.2 mi NNW 13.8 mph - 0.00 in Snow Light Snow
5:56 PM 19.9 °F 6.7 °F 12.9 °F 74% 30.21 in 2.0 mi NW 13.8 mph - 0.00 in Snow Light Snow
6:10 PM 19.0 °F 6.8 °F 14.0 °F 81% 30.15 in 1.8 mi NW 11.5 mph - 0.00 in Snow Light Snow
6:19 PM 19.0 °F 5.6 °F 14.0 °F 81% 30.16 in 2.5 mi NNW 13.8 mph - 0.00 in Snow Light Snow
6:51 PM 19.4 °F 7.9 °F 14.0 °F 80% 30.19 in 1.5 mi NNW 10.4 mph - 0.00 in Snow Light Snow
6:56 PM 19.0 °F 8.2 °F 15.1 °F 85% 30.25 in 1.5 mi NNW 9.2 mph - 0.00 in Snow Light Snow
7:11 PM 19.0 °F 6.8 °F 14.0 °F 81% 30.20 in 2.5 mi North 11.5 mph - 0.00 in Snow Light Snow
7:19 PM 18.0 °F 4.8 °F 12.9 °F 81% 30.21 in 4.0 mi North 12.7 mph - 0.00 in Snow Light Snow
7:56 PM 19.0 °F 9.0 °F 14.0 °F 81% 30.29 in 3.0 mi NNW 8.1 mph - 0.00 in Snow Light Snow
8:42 PM 12.9 °F 2.6 °F 9.0 °F 84% 30.26 in 7.0 mi North 6.9 mph - 0.00 in   Mostly Cloudy
8:56 PM 10.9 °F 0.2 °F 8.1 °F 88% 30.33 in 7.0 mi NNW 6.9 mph - 0.00 in   Mostly Cloudy
9:05 PM 7.0 °F -4.5 °F 6.1 °F 96% 30.26 in 6.0 mi NNW 6.9 mph - N/A   Scattered Clouds
9:39 PM 7.0 °F -1.7 °F 7.0 °F 100% 30.29 in 5.0 mi North 4.6 mph - N/A   Mostly Cloudy
9:56 PM 12.0 °F 2.7 °F 10.0 °F 92% 30.36 in 6.0 mi North 5.8 mph - N/A   Overcast
10:56 PM 15.1 °F 2.5 °F 10.9 °F 84% 30.37 in 6.0 mi North 10.4 mph - N/A   Overcast
11:43 PM 7.0 °F -3.3 °F 3.9 °F 87% 30.32 in 9.0 mi North 5.8 mph - N/A   Scattered Clouds
11:56 PM 5.0 °F -6.9 °F 1.9 °F 87% 30.38 in 8.0 mi North 6.9 mph - N/A   Clear